User: anonymous   Login
Location: Strawberry
(45.6646°N, 111.9596°W)
Time: 16:23:06
(UTC+00:00)
Language:

Gurwin Techsat 1B - Orbit

View from above orbital plane
View from above orbital plane
View from above satellite
View from above satellite

Ground track
Ground track

The orbit data is extracted from the following two-line orbital elements,

1 25397U 98043D   22333.85747748  .00000065  00000-0  48307-4 0  9990
2 25397  98.8409 284.9239 0001558  33.6103 326.5173 14.23790876267186
Epoch (UTC): 29 November 2022 20:34:46
Eccentricity: 0.0001558
inclination: 98.8409°
perigee height: 811 km
apogee height: 813 km
right ascension of ascending node: 284.9239°
argument of perigee: 33.6103°
revolutions per day: 14.23790876
mean anomaly at epoch: 326.5173°
orbit number at epoch: 26718

The dashed part of the orbit path shows where the satellite is in the earth's shadow,  

DLR